DECAYED

STARLINK-30180, 57435 (Decayed)

Orbit data source: Space-Track

STARLINK-30180, 57435 was a payload satellite owned by SpaceX/Seattle (US) in LEO that was launched on Mon, 24 Jul 2023 UTC via an FALCON 9 launch vehicle from the Air Force Eastern Test Range (AFETR). Payload-class satellites include a variety of spacecraft equipped with specific instruments for various scientific and technological missions. These include communications satellites like Starlink; space stations such as the ISS; scientific satellites like the Hubble; Earth observation satellites from companies like Planet Labs, Umbra, and HawkEye 360; GPS; miniature CubeSats for education and research; and military/defense satellites.

Not visible in the next 10 days
Identifier
57435, 2023-105F
Orbit
Decayed
Country
Flag of USUS
Related business
Manufacturer
SpaceX/Seattle
Mission
Decayed Commercial Communications
Bus & Motor
STARLINK V2M, Unknown motor
Mass
730 kg wet, ~700 kg dry
Launch date (UTC)
2023-07-24 (3 years ago)
Launch vehicle
FALCON 9
Launch site
Air Force Eastern Test Range (AFETR)
Object type
Payload
Rocket body
Debris
Shape & HBR
Box + 2 Pan, 17.7 m
Radar Cross Section
33.884 m², Large (>1 m²)

Expand to show TLE details & history
Last TLE update: 1 year ago

TLE from 1 year ago
0 STARLINK-30180
1 57435U 23105F   25166.64677956  .11420456  90322-5  55201-2 0  9994
2 57435  42.9727 229.8493 0010651  24.2412 110.6703 16.20113822105989
Epoch: 2025-06-15T15:31Z
TLE epoch observation values (Epoch: 2025-06-15T15:31:21.753Z)
Latitude
28.91367°
Longitude
-123.28111°
Altitude
222.092 km
Speed
7.777 km/s
True Right ascension
00h 54m 54s
True Declination
28° 45' 24"
Sunlit
Object was in daylight at epoch
Visualization orbit readout
Latitude
Unknown
Longitude
Unknown
Altitude
Unknown
Speed
Unknown
Apparent Right ascension
Unknown
Apparent Declination
Unknown
Sunlit
N/A
Visualization observer readout
Local Sidereal Time
21:27:19
Azimuth
Unknown
Elevation
Unknown
Doppler factor
Unknown
Orbital elements
Apogee altitude
228.299 km
Perigee altitude
214.241 km
Semi-major axis
6,599.407 km
Eccentricity
0.00107
Inclination
42.9727°
RAAN
229.8493°
Arg. of periapsis
24.2412°
True anomaly
110.78444°
Mean anomaly
110.6703°
Eccentric anomaly
110.72738°
Mean motion
4.04842 °/min
Orbital period
88.92 mins
BSTAR
0.0055201
Loading maneuver chart data...
Computing Atmospheric mass density...
Loading historical data...
Loading historical data...
Loading historical data...
Loading historical data...
Loading historical data...
Loading historical data...
Loading historical data...

Documentation

Showing up to 5 results
|